EHI
0 0 0 0 0 0 0 0 0 0 0 0 0 0 0 0 0 0 0 3 9 14 19 23 24 25 24 24 25 23 18 15 12 11 12 12 10 8 6 5 5 6 6 6 4 1 0 0 0
0 0 0 0 0 0 0 0 0 0 0 0 0 0 0 0 0 0 1 5 11 16 20 23 25 25 24 24 25 22 18 15 13 12 13 12 10 7 5 5 5 5 6 5 4 2 1 0 0
0 0 0 0 0 0 0 0 0 0 0 0 0 0 0 0 1 1 2 7 14 19 22 24 26 25 23 22 22 20 17 15 14 13 13 11 8 5 4 4 4 4 4 4 3 2 1 0 0
0 0 0 0 0 0 0 0 0 0 0 0 0 0 0 0 1 2 4 9 17 23 25 27 27 24 21 20 19 18 16 15 14 13 12 10 7 4 3 3 3 3 3 2 1 1 0 0 0
0 0 0 0 0 0 0 0 0 0 0 0 0 0 1 1 1 2 6 12 20 25 27 27 26 22 19 19 17 16 16 14 13 13 11 9 6 4 3 3 3 3 2 1 0 0 0 0 0
0 0 0 0 0 0 0 0 0 0 0 0 0 1 2 2 2 4 9 16 24 28 28 27 23 19 18 18 17 16 15 14 13 12 11 9 6 4 3 3 2 1 1 0 0 0 0 0 0
0 0 0 0 0 0 0 0 0 0 0 0 0 1 3 4 4 8 14 20 27 31 31 28 23 18 17 17 16 15 14 13 13 11 10 8 6 4 3 2 1 0 0 0 0 0 0 0 0
0 0 0 0 0 0 0 0 0 0 0 0 0 1 2 5 8 13 20 26 31 33 33 30 25 19 17 17 16 14 14 14 12 11 8 7 4 3 2 1 0 0 0 0 0 0 0 0 0
0 0 0 0 0 0 0 0 0 0 0 0 0 0 3 8 13 17 22 27 30 31 32 29 24 19 18 17 15 14 14 13 11 8 6 5 3 1 1 0 0 0 0 0 0 0 0 0 0
0 0 0 0 0 0 0 0 0 0 0 0 0 1 4 11 15 17 18 20 24 27 29 25 20 17 17 17 14 12 11 10 7 6 4 3 2 0 0 0 0 0 0 0 0 0 0 0 0
0 0 0 0 0 0 0 0 0 0 0 0 1 2 5 9 12 13 14 15 17 23 24 21 18 16 15 15 12 10 8 6 4 4 3 3 2 1 0 0 0 0 0 0 0 0 0 0 0
0 0 0 0 0 0 0 0 0 0 0 0 1 3 6 7 8 10 12 13 15 19 20 18 16 15 13 12 11 8 5 3 3 3 3 3 3 1 0 0 0 0 0 0 0 0 0 0 0
0 0 0 0 0 0 0 0 0 0 0 0 1 4 7 7 8 10 11 12 14 16 16 16 16 14 11 10 9 7 5 3 2 2 2 2 3 2 1 0 0 0 0 0 0 0 0 0 0
0 0 0 0 0 0 0 0 0 0 0 0 1 3 6 8 10 11 11 11 13 14 14 16 15 13 10 8 7 5 4 3 2 1 0 1 2 2 1 0 0 0 0 0 0 0 0 0 0
0 0 0 0 0 0 0 0 0 0 0 0 1 2 4 7 10 11 11 11 11 12 13 14 14 11 7 4 3 3 3 2 1 0 0 0 1 1 1 0 0 0 0 0 0 0 0 0 0
0 0 0 0 0 0 0 0 0 0 0 0 0 1 3 7 9 9 9 9 10 11 10 10 10 8 4 1 1 1 1 1 0 0 0 0 0 0 0 0 0 0 0 0 0 0 0 0 0
0 0 0 0 0 0 0 0 0 0 0 0 0 0 1 4 5 5 6 6 7 8 7 6 5 4 1 0 0 0 0 0 0 0 0 0 0 0 0 0 0 0 0 0 0 0 0 0 0
0 0 0 0 0 0 0 0 0 0 0 0 0 0 1 1 3 3 3 4 5 6 5 4 3 1 0 0 0 0 0 0 0 0 0 0 0 0 0 0 0 0 0 0 0 0 0 0 0
0 0 0 0 0 0 0 0 0 0 0 0 0 0 1 1 2 3 3 3 4 4 4 3 3 2 1 0 0 0 0 0 0 0 0 0 0 0 0 0 0 0 0 0 0 0 0 0 0
0 0 0 0 0 0 0 0 0 0 0 0 0 0 0 1 2 3 3 3 3 4 3 3 4 4 3 1 1 0 0 0 0 0 0 0 0 0 0 0 0 0 0 0 0 0 0 0 0
0 0 0 0 0 0 0 0 0 0 0 0 0 0 0 1 3 3 3 3 3 3 3 3 4 5 4 2 1 0 0 0 0 0 0 0 0 0 0 0 0 0 0 0 0 0 0 0 0
0 0 0 0 0 0 0 0 0 0 0 0 0 0 0 2 3 3 3 3 3 3 3 4 5 5 4 3 1 0 0 0 0 0 0 0 0 0 0 0 0 0 0 0 0 0 0 0 0
0 0 0 0 0 0 0 0 0 0 0 0 0 0 0 2 3 3 3 3 3 3 3 3 4 5 4 2 1 0 0 0 0 0 0 0 0 0 0 0 0 0 0 0 0 0 0 0 0
0 0 0 0 0 0 0 0 0 0 0 0 0 0 1 2 3 3 3 3 3 3 3 3 3 3 2 1 0 0 0 0 0 0 0 0 0 0 0 0 0 0 0 0 0 0 0 0 0
0 0 0 0 0 0 0 0 0 0 0 0 0 0 1 2 3 3 3 3 3 3 3 2 2 1 1 0 0 0 0 0 0 0 0 0 0 0 0 0 0 0 0 0 0 0 0 0 0
0 0 0 0 0 0 0 0 0 0 0 0 0 0 1 2 3 3 3 3 3 3 1 1 1 0 0 0 0 0 0 0 0 0 0 0 0 0 0 0 0 0 0 0 0 0 0 0 0
0 0 0 0 0 0 0 0 0 0 0 0 0 0 1 2 3 3 3 3 3 2 1 0 0 0 0 0 0 0 0 0 0 0 0 0 0 0 0 0 0 0 0 0 0 0 0 0 0
0 0 0 0 0 0 0 0 0 0 0 0 0 0 1 2 3 3 3 3 3 2 1 0 0 0 0 0 0 0 0 0 0 0 0 0 0 0 0 0 0 0 0 0 0 0 0 0 0
0 0 0 0 0 0 0 0 0 0 0 0 0 0 0 1 2 2 3 3 2 1 0 0 0 0 0 0 0 0 0 0 0 0 0 0 0 0 0 0 0 0 0 0 0 0 0 0 0
0 0 0 0 0 0 0 0 0 0 0 0 0 0 0 0 1 1 2 2 2 1 0 0 0 0 0 0 0 0 0 0 0 0 0 0 0 0 0 0 0 0 0 0 0 0 0 0 0
Wind_Speed
5 2 2 3 4 2 6 6 4 3 4 2 2 4 6 6 6 4 0 6 9 11 10 13 15 15 15 15 14 14 14 13 13 13 13 13 13 13 13 12 12 12 12 12 12 12 11 11 11
1 1 3 3 4 4 7 6 6 6 3 2 1 2 2 2 1 2 3 5 10 11 10 11 15 15 15 15 15 14 14 13 13 12 12 12 12 12 12 12 12 12 11 11 11 11 11 11 10
1 1 3 3 5 9 7 5 7 3 2 2 1 1 2 2 1 2 3 8 9 9 9 11 15 15 15 15 14 14 13 13 12 12 12 11 11 12 12 11 11 11 11 11 10 10 10 10 10
1 2 2 3 10 8 5 3 3 2 1 1 3 1 1 1 1 2 6 9 10 9 8 11 14 15 15 14 14 13 12 12 12 12 11 11 11 11 11 11 11 11 10 10 10 10 9 9 9
2 2 2 6 11 6 4 3 2 2 2 1 3 2 1 3 1 5 8 9 10 9 8 10 14 14 14 14 13 13 12 12 11 11 11 11 11 11 10 10 10 10 9 9 9 9 9 9 9
1 2 4 9 10 5 4 3 2 1 1 1 3 2 1 1 4 6 8 7 7 8 8 9 13 13 13 13 12 12 11 11 11 11 10 10 11 10 10 9 9 9 9 9 9 9 8 8 9
2 3 6 7 7 6 4 3 4 3 2 3 3 3 0 0 3 6 7 7 7 7 7 6 8 10 12 12 11 11 11 11 11 10 10 9 9 9 9 9 8 8 9 8 9 9 9 9 8
2 2 4 6 6 6 2 2 2 3 3 1 3 4 3 3 5 8 8 7 6 6 6 6 6 6 6 7 10 10 10 10 10 10 9 9 9 9 9 7 8 8 8 9 9 9 9 9 9
2 2 7 8 6 4 1 1 1 0 3 1 0 1 2 7 9 10 8 6 6 6 5 5 6 6 6 5 7 8 9 9 9 8 10 8 5 5 5 6 8 8 8 8 8 8 9 9 8
3 6 9 4 3 2 1 2 2 1 1 0 1 2 4 9 10 10 9 9 8 7 5 5 5 6 5 5 4 4 4 5 5 5 6 4 4 4 5 7 8 8 8 8 8 9 8 7 4
3 6 5 5 4 3 2 2 0 3 3 4 4 5 8 9 9 8 8 8 7 7 6 5 5 6 5 4 4 3 3 3 4 5 5 4 4 3 3 3 4 4 6 4 5 5 3 3 3
2 5 5 5 4 4 3 2 1 1 4 2 4 9 10 11 9 9 8 7 6 5 5 4 4 5 5 4 4 4 3 3 3 4 5 4 3 3 3 2 2 2 2 3 3 2 3 3 3
3 4 5 5 4 3 3 3 2 4 4 1 5 7 9 9 8 6 6 6 5 5 5 4 4 5 4 4 4 4 3 3 4 4 4 5 4 4 3 2 2 2 2 2 2 2 3 3 3
3 3 4 5 4 3 2 4 2 4 2 3 5 7 7 7 6 5 5 5 5 5 5 4 4 4 4 4 3 3 3 3 3 3 4 5 4 4 4 3 2 2 2 2 2 3 2 2 2
1 2 4 4 4 3 1 3 4 4 0 2 4 5 5 4 5 6 6 6 6 5 4 4 4 4 4 4 4 3 3 4 3 3 4 4 4 4 4 3 3 2 2 3 3 3 3 3 3
0 1 3 4 2 2 3 5 4 2 2 2 2 3 3 3 3 3 3 4 4 4 4 4 4 4 3 3 3 2 3 3 3 3 3 4 5 5 4 3 2 2 2 2 3 2 3 2 2
1 3 4 4 2 1 3 4 4 2 2 2 2 2 3 2 0 1 2 3 4 5 5 4 4 4 3 3 3 3 3 3 2 2 3 4 4 5 4 3 2 3 3 2 2 2 2 2 2
3 3 3 4 3 1 2 3 3 2 1 1 1 1 2 2 1 1 1 2 3 4 4 4 4 3 3 3 3 3 3 2 2 2 2 4 4 5 4 3 3 3 3 2 2 3 2 2 1
3 2 2 4 3 0 2 3 3 2 1 1 1 0 1 1 0 1 1 1 2 3 3 4 4 3 3 2 2 2 2 2 1 1 2 3 4 4 4 3 3 3 3 3 3 2 3 2 1
2 2 2 3 2 0 1 4 3 2 2 2 2 2 2 1 2 2 2 1 2 3 3 4 4 4 4 2 2 2 2 2 2 1 2 2 3 4 4 4 4 3 3 3 3 3 2 2 1
3 3 2 2 3 2 1 4 4 2 2 1 1 1 1 1 1 1 1 1 1 2 3 3 3 3 3 3 3 2 3 2 2 1 1 1 3 3 3 4 4 4 4 3 3 3 4 2 1
4 2 2 2 1 1 0 3 5 2 2 2 3 2 1 1 1 1 1 1 0 1 1 2 3 3 3 3 4 4 3 3 3 3 2 2 2 3 3 4 4 4 3 3 3 3 2 4 2
3 1 0 1 1 1 1 1 6 1 3 4 4 3 2 1 1 1 1 1 0 0 0 1 2 2 2 3 4 4 2 2 2 2 3 2 2 3 3 4 4 3 3 3 3 3 2 2 3
1 2 3 2 2 1 3 2 6 3 5 4 3 2 2 1 1 1 2 1 1 1 1 1 2 1 2 2 3 4 4 3 4 3 3 2 2 2 3 3 3 3 3 3 3 3 3 2 3
3 4 2 2 0 4 2 3 7 4 2 2 2 2 2 1 1 2 3 2 2 2 1 1 1 1 1 1 2 3 3 4 5 5 4 4 3 2 3 3 4 3 3 3 3 3 3 3 3
1 3 3 2 2 2 1 5 6 2 2 2 1 1 1 2 2 2 2 1 1 1 1 1 1 1 1 1 1 1 2 2 2 3 4 4 4 3 4 4 3 4 4 4 3 2 2 2 3
1 1 2 3 1 1 4 6 6 3 4 3 3 3 3 3 3 2 2 2 1 1 1 1 1 1 0 1 0 1 1 2 2 3 3 3 2 3 4 4 4 3 3 4 4 3 3 3 2
1 3 3 3 2 2 4 4 4 4 5 4 3 3 4 4 4 3 2 2 2 1 2 1 1 1 0 1 1 1 1 1 2 3 3 3 3 3 4 4 4 4 3 3 3 3 3 3 2
2 2 2 2 2 3 3 5 2 3 3 3 3 3 3 3 3 3 3 3 2 2 2 1 1 1 1 0 0 0 1 0 1 2 3 3 3 4 5 5 4 4 4 4 3 3 3 3 2
0 1 2 2 2 2 2 6 2 3 2 2 4 5 4 4 3 3 3 3 3 3 3 3 2 1 1 0 0 0 0 0 0 1 2 3 3 4 4 5 4 4 4 4 4 4 3 3 3
Wind_Direction
330 8 62 58 64 81 228 232 220 223 215 210 171 158 165 166 170 202 119 142 136 144 151 149 146 143 138 134 131 128 126 124 122 121 118 115 112 110 106 102 99 95 91 89 88 86 84 83 81
317 39 61 72 130 204 241 225 218 217 196 138 94 110 128 206 223 124 132 145 140 143 146 147 145 142 139 135 132 129 129 127 125 122 119 116 114 110 107 103 99 95 91 88 86 85 83 81 80
312 71 105 117 184 204 221 212 216 233 200 141 122 96 159 198 181 168 160 144 136 139 142 145 144 142 139 136 134 131 129 127 126 124 121 117 115 112 107 103 101 98 93 89 85 83 82 81 78
65 66 73 174 223 223 216 212 193 204 239 152 136 118 278 315 223 175 139 139 135 137 138 144 144 144 141 138 136 133 131 130 128 125 123 120 117 113 108 105 103 100 97 92 88 83 83 81 77
58 113 174 226 235 236 236 250 190 180 189 172 145 151 295 338 81 125 133 137 139 137 137 144 143 143 141 139 137 135 133 132 130 126 123 122 119 116 112 109 106 102 98 93 90 87 84 81 75
80 129 190 228 235 239 238 226 196 197 217 134 138 138 246 0 104 129 132 131 132 134 135 142 144 142 141 140 139 137 136 135 132 129 125 124 122 118 115 111 108 105 100 96 91 87 85 80 76
160 175 215 226 237 244 239 195 187 191 203 214 167 130 246 37 121 128 125 121 121 127 131 135 140 141 142 141 140 137 137 135 132 129 125 121 121 120 115 111 109 106 98 94 90 84 82 80 79
161 166 227 231 227 243 236 186 193 182 202 182 138 147 196 195 137 124 119 118 118 120 126 130 130 132 135 138 138 136 136 134 130 124 117 111 109 109 106 101 101 101 97 93 89 85 82 79 79
133 200 228 224 217 243 212 194 311 31 122 116 130 203 212 141 135 128 124 121 129 128 127 130 131 130 129 132 138 134 130 128 123 117 112 103 93 89 90 93 95 98 96 93 90 87 83 79 74
161 218 235 244 238 255 257 210 204 116 136 251 12 20 113 132 140 143 148 152 153 151 143 137 139 137 132 129 126 123 119 120 113 112 111 102 96 91 89 86 88 89 89 88 84 81 78 72 62
191 224 252 274 287 296 291 299 272 146 222 222 189 152 139 140 145 150 156 159 161 156 148 143 141 138 135 131 130 125 122 119 114 118 117 110 98 91 82 80 75 71 72 69 70 64 60 65 66
214 253 260 277 306 311 297 307 2 222 247 264 170 155 152 156 165 166 165 160 147 143 145 140 137 137 136 133 136 137 135 133 131 130 127 122 114 105 100 89 83 74 73 76 69 71 68 68 68
240 259 269 284 302 305 324 310 277 296 302 69 120 142 159 165 167 164 157 151 147 150 146 146 139 137 136 135 137 137 141 140 138 135 133 133 131 127 115 102 92 86 84 88 83 81 77 72 66
232 260 286 303 302 308 300 301 314 296 337 107 134 155 168 170 165 151 148 154 158 161 157 149 149 142 140 138 139 143 139 137 137 141 144 138 135 133 127 117 105 96 93 94 98 93 89 79 76
234 278 302 296 282 275 296 315 285 279 250 133 158 168 169 169 167 172 173 173 169 167 158 154 150 142 143 137 135 138 139 138 143 144 145 141 136 137 133 128 118 113 106 100 92 82 78 77 69
100 231 264 275 249 260 149 252 288 291 164 167 177 176 174 178 181 180 172 173 166 159 158 158 149 142 144 138 130 124 135 138 141 143 144 144 140 138 132 130 128 123 112 106 103 92 77 66 65
155 221 240 283 258 208 169 235 293 279 164 181 190 188 181 165 130 197 179 180 173 167 162 158 142 146 137 127 123 118 124 131 135 140 143 146 143 141 136 134 131 125 110 104 105 86 94 86 62
209 216 225 249 289 237 192 236 294 321 157 210 211 191 167 171 224 257 208 178 169 160 156 153 135 134 124 112 106 103 102 110 121 137 150 150 147 144 136 131 128 124 115 102 97 97 75 87 81
203 198 241 265 292 256 211 250 273 275 309 293 304 229 206 221 0 48 37 139 135 141 155 163 148 147 141 136 141 144 148 138 134 140 147 149 143 146 144 138 136 132 129 129 123 111 91 62 56
207 210 262 308 346 242 235 267 270 255 240 234 226 224 239 324 25 36 22 89 144 161 169 177 171 168 168 161 156 158 144 141 138 137 140 149 150 154 156 150 149 143 132 125 124 120 105 72 45
231 212 222 275 358 8 331 295 262 257 231 265 260 231 223 205 238 359 11 28 123 168 183 186 182 173 168 142 119 102 89 86 109 125 161 174 163 157 153 154 149 152 149 153 152 141 129 132 55
253 241 234 266 35 313 120 274 279 251 252 260 267 270 268 269 274 308 341 359 202 233 194 162 167 165 166 153 153 157 169 175 188 174 173 175 166 161 155 152 150 154 155 155 161 148 142 140 145
239 261 207 232 157 341 358 205 285 315 260 250 251 256 269 273 251 254 266 237 293 350 114 142 149 151 159 168 170 169 172 163 138 141 156 163 169 168 163 159 154 152 152 153 148 140 141 144 148
232 57 51 44 80 249 229 189 276 246 236 250 251 264 292 320 349 350 336 24 21 30 55 99 127 139 149 164 172 172 170 159 152 162 169 169 175 175 173 160 155 157 152 155 157 151 149 143 134
82 91 59 27 18 247 210 197 252 257 251 236 243 269 295 329 14 12 4 14 6 20 27 63 118 117 129 161 180 181 179 173 178 178 177 175 179 189 191 172 165 162 158 153 146 144 148 146 142
199 127 138 187 222 291 293 233 258 305 336 343 336 320 355 3 3 359 335 347 350 348 7 58 125 131 119 158 211 199 177 173 194 191 181 187 192 190 177 170 165 161 153 148 142 141 149 139 135
115 131 148 126 74 291 267 285 302 360 357 1 3 6 349 351 354 349 348 354 1 343 299 229 184 139 160 212 187 191 190 182 193 194 184 186 180 166 160 160 157 154 150 147 145 149 150 141 139
118 140 95 106 127 260 283 272 279 313 316 327 340 342 343 351 350 352 350 349 347 327 307 285 207 173 189 189 195 237 239 218 196 181 182 183 174 159 153 154 153 146 142 142 142 143 145 138 140
27 60 95 119 152 168 261 275 256 286 296 298 310 327 334 338 339 341 340 339 354 6 13 3 3 24 33 46 200 240 261 263 198 184 185 178 167 160 158 157 153 149 146 144 143 150 152 148 139
20 150 134 148 233 189 199 270 342 336 335 337 337 343 345 346 347 347 349 358 9 13 11 3 357 357 323 279 154 174 208 166 132 189 183 169 166 164 158 150 147 148 146 147 150 154 157 157 155